Weather History for Naples, FL

Change the Weather History Date:

Tuesday, April 8, 2014

  Actual Average Record
Temperature  
Mean Temperature 75 °F 72 °F  
Max Temperature 84 °F 82 °F 89 °F (2011)
Min Temperature 66 °F 62 °F 39 °F (1971)
Degree Days  
Heating Degree Days 0 0  
Month to date heating degree days 0 0  
Since 1 July heating degree days 149 256  
Cooling Degree Days 10 7  
Month to date cooling degree days 74 56  
Year to date cooling degree days 505 423  
Growing Degree Days 24 (Base 50)    
Moisture  
Dew Point 72 °F    
Average Humidity 87    
Maximum Humidity 100    
Minimum Humidity 73    
Precipitation  
Precipitation 0.53 in 0.08 in 1.40 in (1980)
Month to date precipitation 0.53 0.65  
Year to date precipitation 5.59 6.98  
Snow  
Snow 0.00 in - - ()
Month to date snowfall 0.0  
Since 1 July snowfall 0.0  
Snow Depth 0.00 in    
Sea Level Pressure  
Sea Level Pressure 29.85 in    
Wind  
Wind Speed 15 mph (WSW)    
Max Wind Speed 28 mph    
Max Gust Speed 36 mph    
Visibility 6 miles    
Events Rain    
T = Trace of Precipitation, MM = Missing Value Source: NWS Daily Summary

Daily Weather History Graph

Daily Weather History Graph

Search for Another Location

Airport:

Trip Planner

Search our weather history database for the weather conditions in past years. The results will help you decide how hot, cold, wet, or windy it might be!

Date:

Astronomy

Apr. 08, 2014 Rise Set
Actual Time 7:10 AM EDT 7:47 PM EDT
Civil Twilight 6:47 AM EDT 8:10 PM EDT
Nautical Twilight 6:20 AM EDT 8:38 PM EDT
Astronomical Twilight 5:52 AM EDT 9:06 PM EDT
Moon 2:11 PM EDT (4/8) 2:49 AM EDT (4/8)
Length of Visible Light 13h 23m
Length of Day
12h 36m
Waxing Gibbous, 62% of the Moon is Illuminated
Apr 8
Waxing Gibbous
Apr 15
Full
Apr 22
Last Quarter
Apr 29
New
May 6
First Quarter

Hourly Weather History & Observations

Time (EDT) Temp. Heat Index Dew Point Humidity Pressure Visibility Wind Dir Wind Speed Gust Speed Precip Events Conditions
12:53 AM 78.1 °F - 75.0 °F 90% 29.88 in 9.0 mi SSE 10.4 mph - N/A   Clear
1:46 AM 79.0 °F - 77.0 °F 94% 29.87 in 8.0 mi SSE 10.4 mph - N/A   Mostly Cloudy
1:53 AM 78.1 °F - 77.0 °F 96% 29.87 in 8.0 mi SSE 10.4 mph - N/A   Mostly Cloudy
2:53 AM 78.1 °F - 78.1 °F 100% 29.84 in 7.0 mi South 10.4 mph - N/A   Overcast
3:53 AM 78.1 °F - 78.1 °F 100% 29.82 in 8.0 mi South 10.4 mph - N/A   Mostly Cloudy
4:08 AM 78.1 °F - 77.0 °F 96% 29.82 in 8.0 mi South 9.2 mph - N/A   Scattered Clouds
4:53 AM 78.1 °F - 77.0 °F 96% 29.81 in 8.0 mi South 11.5 mph - N/A   Scattered Clouds
5:53 AM 78.1 °F - 75.9 °F 93% 29.81 in 9.0 mi South 11.5 mph - N/A   Clear
6:53 AM 78.1 °F - 75.9 °F 93% 29.82 in 9.0 mi South 13.8 mph - N/A   Clear
7:53 AM 78.1 °F - 77.0 °F 96% 29.83 in 7.0 mi South 11.5 mph - N/A   Clear
8:53 AM 79.0 °F - 75.0 °F 88% 29.84 in 9.0 mi SSW 17.3 mph 25.3 mph N/A   Clear
9:53 AM 80.1 °F 85.8 °F 77.0 °F 90% 29.84 in 8.0 mi South 20.7 mph 27.6 mph N/A   Mostly Cloudy
10:23 AM 82.0 °F 91.0 °F 78.1 °F 88% 29.85 in 8.0 mi South 20.7 mph 29.9 mph N/A   Overcast
10:53 AM 82.0 °F 91.6 °F 79.0 °F 90% 29.85 in 8.0 mi SSW 18.4 mph 32.2 mph N/A   Overcast
11:53 AM 82.9 °F 93.8 °F 79.0 °F 88% 29.84 in 7.0 mi South 24.2 mph 32.2 mph N/A   Overcast
12:53 PM 82.9 °F 93.8 °F 79.0 °F 88% 29.83 in 7.0 mi SSW 26.5 mph 35.7 mph N/A   Overcast
1:29 PM 75.0 °F - 73.9 °F 96% 29.84 in 1.0 mi WSW 21.9 mph 36.8 mph 0.10 in Rain Heavy Rain
1:36 PM 73.0 °F - 73.0 °F 100% 29.83 in 1.0 mi WSW 16.1 mph 29.9 mph 0.12 in Rain Light Rain
1:40 PM 73.0 °F - 73.0 °F 100% 29.83 in 2.0 mi WSW 17.3 mph 28.8 mph 0.13 in Rain Rain
1:53 PM 73.0 °F - 73.0 °F 100% 29.83 in 5.0 mi WSW 15.0 mph 24.2 mph 0.14 in Rain Light Rain
2:32 PM 71.1 °F - 71.1 °F 100% 29.83 in 2.0 mi West 15.0 mph 23.0 mph 0.04 in Rain Heavy Rain
2:53 PM 70.0 °F - 70.0 °F 100% 29.83 in 2.0 mi West 16.1 mph - 0.12 in Rain Rain
3:05 PM 70.0 °F - 70.0 °F 100% 29.83 in 6.0 mi West 16.1 mph 25.3 mph 0.01 in Rain Light Rain
3:38 PM 68.0 °F - 68.0 °F 100% 29.85 in 2.0 mi West 15.0 mph 28.8 mph 0.04 in Rain Heavy Rain
3:53 PM 69.1 °F - 69.1 °F 100% 29.84 in 2.0 mi West 18.4 mph 26.5 mph 0.07 in Rain Rain
3:55 PM 69.1 °F - 69.1 °F 100% 29.85 in 1.8 mi West 19.6 mph 26.5 mph 0.01 in Rain Rain
4:02 PM 68.0 °F - 68.0 °F 100% 29.85 in 2.0 mi WNW 18.4 mph 32.2 mph 0.01 in Rain Light Rain
4:07 PM 66.9 °F - 66.0 °F 97% 29.85 in 3.0 mi WNW 16.1 mph - 0.02 in Rain Light Rain
4:19 PM 66.9 °F - 66.9 °F 100% 29.85 in 2.0 mi West 17.3 mph 24.2 mph 0.04 in Rain Light Rain
4:53 PM 66.0 °F - 66.0 °F 100% 29.85 in 1.5 mi WNW 15.0 mph 25.3 mph 0.10 in Rain Heavy Rain
5:15 PM 66.0 °F - 66.0 °F 100% 29.85 in 3.0 mi West 8.1 mph - 0.06 in Rain Light Rain
5:53 PM 66.9 °F - 66.0 °F 97% 29.83 in 6.0 mi West 6.9 mph - 0.10 in Rain Light Rain
6:53 PM 68.0 °F - 66.0 °F 93% 29.85 in 10.0 mi West 12.7 mph - 0.00 in   Overcast
7:53 PM 70.0 °F - 64.9 °F 84% 29.85 in 10.0 mi West 10.4 mph - N/A   Mostly Cloudy
8:53 PM 70.0 °F - 66.0 °F 87% 29.88 in 10.0 mi West 12.7 mph - 0.00 in Rain Light Rain
9:53 PM 71.1 °F - 68.0 °F 90% 29.91 in 10.0 mi West 11.5 mph - 0.00 in   Mostly Cloudy
10:16 PM 71.1 °F - 68.0 °F 90% 29.92 in 10.0 mi West 15.0 mph - N/A   Overcast
10:42 PM 72.0 °F - 64.0 °F 76% 29.92 in 10.0 mi WNW 17.3 mph 26.5 mph N/A   Mostly Cloudy
10:53 PM 72.0 °F - 64.0 °F 76% 29.94 in 10.0 mi West 15.0 mph 23.0 mph N/A   Scattered Clouds
11:53 PM 71.1 °F - 63.0 °F 75% 29.93 in 10.0 mi WNW 12.7 mph - N/A   Scattered Clouds